Flag for Germany Weather past 2 weeks in Geislingen an der Steige, Baden-Württemberg, Germany

29 °F

Light snow. Low clouds.

Feels Like: 22 °F
Forecast: 34 / 37 °F
Wind: 6 mph from Southwest

Location: Stoetten

Current Time: Nov 25, 2015 at 4:08:43 AM

Latest Report: Nov 25, 2015 at 3:00 AM

Visibility: 1 mi

Pressure: 29.91 "Hg

Humidity: 100%

Dew point: 29 °F

Location of Geislingen an der SteigeLocation

Historic Weather in Geislingen an der Steige — Graph


Geislingen an der Steige temperature yesterday

Maximum temperature yesterday: 30 °F (at 1:00 PM)
Minimum temperature yesterday: 24 °F (at 5:00 PM)
Average temperature yesterday: 26 °F

Past Weeks' High & Low Weather Summary

High60 °F (Nov 16, 2:00 PM)100% (Nov 20, 9:00 AM)30.47 "Hg (Nov 20, 9:00 AM)
Low24 °F (Nov 24, 5:00 PM)45% (Nov 16, 2:00 PM)29.41 "Hg (Nov 21, 2:00 PM)
Average43 °F82%30.10 "Hg
* Reported Nov 10 3:00 AM — Nov 25 3:00 AM, Geislingen an der Steige, Weather by CustomWeather, © 2015

Note: Actual official high and low records may vary slightly from our data, if they occured in-between our weather recording intervals... More about our weather records


Geislingen an der Steige weather history for previous 24 hours

Time TempWeatherWind HumidityBarometerVisibility
3:00 AM
Wed, Nov 25
29 °FLight snow. Low clouds.6 mph100%29.91 "Hg1 mi
2:00 AM28 °FLight snow. Low clouds.6 mph96%29.93 "Hg1 mi
10:00 PM
Tue, Nov 24
27 °FOvercast.6 mph85%30.06 "Hg9 mi
9:00 PM27 °FOvercast.3 mph87%30.09 "Hg19 mi
8:00 PM26 °FOvercast.2 mph92%30.11 "Hg19 mi
7:00 PM26 °FOvercast.3 mph92%30.13 "Hg19 mi
6:00 PM25 °FOvercast.2 mph94%30.16 "Hg16 mi
5:00 PM24 °FPassing clouds.5 mph94%30.18 "Hg9 mi
4:00 PM25 °FScattered clouds.3 mph90%30.19 "Hg9 mi
3:00 PM27 °FScattered clouds.2 mph86%30.20 "Hg17 mi
2:00 PM29 °FScattered clouds.2 mph81%30.21 "Hg22 mi
1:00 PM30 °FScattered clouds.3 mph75%30.23 "Hg28 mi
12:00 PM29 °FPassing clouds.5 mph77%30.27 "Hg28 mi
11:00 AM27 °FPassing clouds.3 mph85%30.29 "Hg28 mi
10:00 AM27 °FSunny.3 mph90%30.30 "Hg6 mi
9:00 AM26 °FPassing clouds.3 mph95%30.32 "Hg16 mi
8:00 AM25 °FPassing clouds.3 mph95%30.32 "Hg9 mi
7:00 AM25 °FPassing clouds.3 mph96%30.33 "Hg9 mi
6:00 AM26 °FClear.3 mph97%30.34 "Hg12 mi
5:00 AM26 °FFog.3 mph98%30.33 "Hg4 mi
4:00 AM26 °FFog.3 mph99%30.34 "Hg3 mi
Weather by CustomWeather, © 2015

See weather overviewHow to use our weather pages